Location: Country Club Park
(34.0503°N, 118.3212°W)
Time: 23:05:26
(UTC+00:00)

X-37B - Visible Passes

Search period start: 30 September 2022 00:00
Search period end: 10 October 2022 00:00
Orbit: 329 x 342 km, 45.0° (Epoch: 29 September)

Date Brightness Start Highest point End Pass type
(mag) Time Alt. Az. Time Alt. Az. Time Alt. Az.
01 Oct 3.2 12:38:33 10° N 12:39:25 11° N 12:40:16 10° NNE visible
02 Oct 2.9 12:58:21 10° NNW 13:00:15 16° NNE 13:02:10 10° ENE visible
03 Oct 2.0 13:18:20 10° NW 13:20:57 30° NNE 13:23:34 10° E visible
04 Oct 3.0 12:05:44 16° NNE 12:05:44 16° NNE 12:07:35 10° ENE visible
05 Oct 1.9 12:25:38 26° N 12:26:23 30° NNE 12:28:59 10° E visible
06 Oct 0.2 12:45:39 30° WNW 12:46:54 90° SE 12:49:46 10° ESE visible
07 Oct 1.6 13:05:48 17° W 13:07:13 25° SW 13:09:40 10° SSE visible
08 Oct 3.5 11:54:49 13° ESE 11:54:49 13° ESE 11:55:12 10° ESE visible
